FW0810 Weather Reports


Display with metric or nautical units.
time (UTC)temp
F
wind
direction
speed
MPH
gust
MPH
rain 1hr
in
rain 24hr
in
rain mn
in
humidity
%
barometer
mb
20260503031928 43 275 0.0 0.0 0.00 0.00 0.00 86 1023.9
20260503031413 43 275 0.0 0.0 0.00 0.00 0.00 86 1023.9
20260503030913 43 275 0.0 0.0 0.00 0.00 0.00 86 1023.8
20260503030414 43 275 0.0 0.0 0.00 0.00 0.00 86 1023.8
20260503025914 43 275 0.0 0.0 0.00 0.00 0.00 86 1023.8
20260503025413 43 274 0.0 0.0 0.00 0.00 0.00 86 1023.8
20260503024409 43 274 0.0 0.0 0.00 0.00 0.00 86 1023.8
20260503023407 44 275 0.0 0.0 0.00 0.00 0.00 85 1023.7
20260503022908 44 275 0.0 0.0 0.00 0.00 0.00 85 1023.7
20260503022405 44 275 0.0 0.0 0.00 0.00 0.00 85 1023.7
20260503021404 44 275 0.0 0.0 0.00 0.00 0.00 85 1023.8
20260503020357 44 275 0.0 0.0 0.00 0.00 0.00 85 1023.9
20260503015357 45 274 0.0 0.0 0.00 0.00 0.00 84 1023.9
20260503014855 45 274 0.0 0.0 0.00 0.00 0.00 84 1024.0
20260503014355 45 274 0.0 0.0 0.00 0.00 0.00 85 1023.9
20260503013855 45 274 0.0 0.0 0.00 0.00 0.00 85 1023.9
20260503013355 45 274 0.0 0.0 0.00 0.00 0.00 84 1023.9
20260503012855 45 274 0.0 0.0 0.00 0.00 0.00 84 1023.9
20260503012353 45 274 0.0 1.0 0.00 0.00 0.00 84 1023.9
20260503011351 45 274 0.0 0.0 0.00 0.00 0.00 85 1024.0
20260503010349 46 274 0.0 0.0 0.00 0.00 0.00 84 1024.0
20260503005847 46 274 0.0 0.0 0.00 0.00 0.00 84 1024.0
20260503004847 46 274 0.0 0.0 0.00 0.00 0.00 83 1024.1
20260503004346 46 274 0.0 0.0 0.00 0.00 0.00 82 1024.2
20260503003846 46 274 0.0 0.0 0.00 0.00 0.00 82 1024.1
20260503002843 47 274 0.0 0.0 0.00 0.00 0.00 81 1024.1
20260503002345 47 274 0.0 0.0 0.00 0.00 0.00 81 1024.1
20260503001843 47 274 0.0 0.0 0.00 0.00 0.00 81 1024.4
20260503001341 47 274 0.0 0.0 0.00 0.00 0.00 81 1024.4
20260503000341 48 274 0.0 0.0 0.00 0.00 0.00 80 1024.1
20260502235841 48 274 0.0 0.0 0.00 0.00 0.00 80 1024.1
20260502234839 48 276 0.0 0.0 0.00 0.00 0.00 80 1024.4
20260502233834 48 276 0.0 0.0 0.00 0.00 0.00 81 1024.4
20260502233337 48 275 0.0 0.0 0.00 0.00 0.00 81 1024.4
20260502232836 48 275 0.0 0.0 0.00 0.00 0.00 80 1024.4
20260502232335 48 275 0.0 0.0 0.00 0.00 0.00 80 1024.4
20260502231835 48 275 0.0 0.0 0.00 0.00 0.00 80 1024.5
20260502231335 48 275 0.0 1.0 0.00 0.00 0.00 80 1024.4
20260502230837 48 275 1.0 4.0 0.00 0.00 0.00 80 1024.5
20260502230334 48 272 1.0 4.0 0.00 0.00 0.00 80 1024.4
20260502225835 48 276 0.0 4.0 0.00 0.00 0.00 80 1024.4
20260502225335 48 269 0.0 3.0 0.00 0.00 0.00 79 1024.5
20260502224836 48 269 0.0 3.0 0.00 0.00 0.00 79 1024.5
20260502224334 49 269 0.0 3.0 0.00 0.00 0.00 79 1024.5
20260502223835 49 280 0.0 3.0 0.00 0.00 0.00 78 1024.6
20260502223335 49 274 0.0 2.0 0.00 0.00 0.00 78 1024.5
20260502222840 49 273 0.0 3.0 0.00 0.00 0.00 78 1024.5
20260502222334 49 274 0.0 3.0 0.00 0.00 0.00 78 1024.6
20260502221833 49 272 0.0 2.0 0.00 0.00 0.00 78 1024.6
20260502221333 49 278 1.0 5.0 0.00 0.00 0.00 77 1024.6
20260502220830 50 277 1.0 5.0 0.00 0.00 0.00 76 1024.6
20260502220329 50 275 1.0 4.0 0.00 0.00 0.00 75 1024.7
20260502215831 51 269 1.0 5.0 0.00 0.00 0.00 74 1024.6
20260502215329 51 271 2.0 5.0 0.00 0.00 0.00 73 1024.6
20260502214830 52 275 1.0 5.0 0.00 0.00 0.00 73 1024.6
20260502214330 52 273 1.0 4.0 0.00 0.00 0.00 73 1024.6
20260502213829 51 264 1.0 3.0 0.00 0.00 0.00 74 1024.5
20260502213330 52 276 1.0 5.0 0.00 0.00 0.00 73 1024.4
20260502212829 52 274 2.0 5.0 0.00 0.00 0.00 72 1024.4
20260502211829 52 271 3.0 6.0 0.00 0.00 0.00 72 1024.4
20260502211329 53 267 2.0 6.0 0.00 0.00 0.00 71 1024.4
20260502210844 53 251 2.0 5.0 0.00 0.00 0.00 71 1024.5
20260502210331 53 264 1.0 4.0 0.00 0.00 0.00 71 1024.4
20260502205830 53 268 0.0 3.0 0.00 0.00 0.00 71 1024.4
20260502205330 53 272 0.0 4.0 0.00 0.00 0.00 71 1024.4
20260502204329 54 276 0.0 1.0 0.00 0.00 0.00 71 1024.2
20260502203830 54 278 0.0 3.0 0.00 0.00 0.00 70 1024.4
20260502203327 54 282 1.0 4.0 0.00 0.00 0.00 70 1024.4
20260502202825 54 271 3.0 6.0 0.00 0.00 0.00 69 1024.2
20260502202325 55 270 1.0 6.0 0.00 0.00 0.00 68 1024.5
20260502201325 56 273 0.0 1.0 0.00 0.00 0.00 67 1024.2
20260502200827 56 273 0.0 1.0 0.00 0.00 0.00 67 1024.4
20260502200325 56 273 0.0 2.0 0.00 0.00 0.00 66 1024.2
20260502195828 56 273 0.0 2.0 0.00 0.00 0.00 66 1024.4
20260502194826 57 275 0.0 1.0 0.00 0.00 0.00 65 1024.1
20260502193821 58 273 0.0 3.0 0.00 0.00 0.00 63 1024.0
20260502193316 58 266 0.0 0.0 0.00 0.00 0.00 62 1023.9
20260502192815 58 266 0.0 0.0 0.00 0.00 0.00 62 1023.9
20260502192313 59 266 0.0 0.0 0.00 0.00 0.00 62 1023.9
20260502191815 59 269 0.0 0.0 0.00 0.00 0.00 61 1023.8
20260502191316 60 269 0.0 0.0 0.00 0.00 0.00 60 1023.8
20260502190828 60 269 0.0 0.0 0.00 0.00 0.00 60 1023.8
20260502190313 60 274 0.0 0.0 0.00 0.00 0.00 59 1023.7
20260502185813 61 290 0.0 0.0 0.00 0.00 0.00 59 1023.7
20260502185313 61 79 0.0 0.0 0.00 0.00 0.00 58 1023.6
20260502184815 62 78 0.0 0.0 0.00 0.00 0.00 58 1023.6
20260502184313 62 79 0.0 0.0 0.00 0.00 0.00 57 1023.6
20260502183815 63 79 0.0 0.0 0.00 0.00 0.00 56 1023.5
20260502182815 65 86 0.0 0.0 0.00 0.00 0.00 54 1023.4
20260502181813 66 86 0.0 0.0 0.00 0.00 0.00 53 1023.3
20260502181313 67 86 0.0 0.0 0.00 0.00 0.00 51 1023.3
20260502180814 67 86 0.0 0.0 0.00 0.00 0.00 50 1023.3
20260502170309 74 89 0.0 2.0 0.00 0.00 0.00 35 1023.0
20260502164305 76 79 0.0 4.0 0.00 0.00 0.00 32 1023.1
20260502163804 76 79 0.0 4.0 0.00 0.00 0.00 32 1023.1
20260502163305 77 328 0.0 1.0 0.00 0.00 0.00 32 1023.2
20260502162804 77 328 0.0 1.0 0.00 0.00 0.00 31 1023.2
20260502162300 77 328 0.0 1.0 0.00 0.00 0.00 32 1023.2
20260502161800 76 328 0.0 1.0 0.00 0.00 0.00 32 1023.2
20260502161301 76 328 0.0 0.0 0.00 0.00 0.00 32 1023.2
20260502160758 76 328 0.0 1.0 0.00 0.00 0.00 32 1023.3
20260502160300 76 328 0.0 4.0 0.00 0.00 0.00 33 1023.3
20260502152214 75 101 1.0 4.0 0.00 0.00 0.00 32 1023.5
20260502151708 76 122 0.0 3.0 0.00 0.00 0.00 31 1023.5
20260502151203 76 359 0.0 3.0 0.00 0.00 0.00 32 1023.6
20260502150657 76 359 0.0 3.0 0.00 0.00 0.00 32 1023.6
20260502150150 75 95 0.0 3.0 0.00 0.00 0.00 32 1023.7
20260502140109 75 112 1.0 6.0 0.00 0.00 0.00 31 1024.4
20260502130110 73 94 2.0 9.0 0.00 0.00 0.00 32 1025.3
20260502123056 74 91 1.0 9.0 0.00 0.00 0.00 33 1025.6
20260502122053 73 95 2.0 7.0 0.00 0.00 0.00 30 1025.7
20260502121552 74 104 1.0 7.0 0.00 0.00 0.00 34 1025.6
20260502121053 73 175 1.0 10.0 0.00 0.00 0.00 32 1025.6
20260502120550 73 115 2.0 10.0 0.00 0.00 0.00 32 1025.7
20260502115550 73 176 1.0 8.0 0.00 0.00 0.00 32 1025.8
20260502115051 73 139 1.0 8.0 0.00 0.00 0.00 32 1025.8
20260502114554 73 109 1.0 7.0 0.00 0.00 0.00 31 1025.8
20260502114048 73 186 1.0 7.0 0.00 0.00 0.00 32 1025.8
20260502113546 73 210 0.0 3.0 0.00 0.00 0.00 33 1025.9
20260502113045 72 27 0.0 5.0 0.00 0.00 0.00 32 1026.0
20260502112546 72 114 1.0 8.0 0.00 0.00 0.00 32 1026.0
20260502112044 72 186 1.0 8.0 0.00 0.00 0.00 34 1026.1
20260502111044 71 113 1.0 6.0 0.00 0.00 0.00 33 1026.1
20260502110542 71 65 1.0 6.0 0.00 0.00 0.00 34 1026.3
20260502110058 71 131 1.0 5.0 0.00 0.00 0.00 34 1026.3
20260502105542 71 270 1.0 4.0 0.00 0.00 0.00 33 1026.4
20260502105044 71 129 1.0 7.0 0.00 0.00 0.00 33 1026.6
20260502104542 72 98 1.0 7.0 0.00 0.00 0.00 33 1026.8
20260502104055 72 93 1.0 6.0 0.00 0.00 0.00 34 1026.9
20260502103040 71 291 1.0 6.0 0.00 0.00 0.00 36 1026.9
20260502102041 71 68 0.0 3.0 0.00 0.00 0.00 33 1026.9
20260502101544 70 100 0.0 3.0 0.00 0.00 0.00 37 1026.9
20260502100542 70 86 1.0 5.0 0.00 0.00 0.00 37 1027.0
20260502091037 68 96 1.0 8.0 0.00 0.00 0.00 38 1027.4
20260502090537 68 297 1.0 11.0 0.00 0.00 0.00 39 1027.5
20260502071530 61 145 0.0 1.0 0.00 0.00 0.00 53 1028.0
20260502071032 60 145 0.0 0.0 0.00 0.00 0.00 52 1028.0
20260502070530 60 145 0.0 0.0 0.00 0.00 0.00 52 1027.9
20260502070030 58 146 0.0 0.0 0.00 0.00 0.00 51 1028.0
20260502065527 58 203 0.0 0.0 0.00 0.00 0.00 51 1028.0
20260502065028 57 203 0.0 0.0 0.00 0.00 0.00 56 1028.0
20260502063540 54 261 0.0 0.0 0.00 0.00 0.00 61 1028.1
20260502063027 52 269 0.0 0.0 0.00 0.00 0.00 64 1028.2
20260502062528 51 269 0.0 0.0 0.00 0.00 0.00 67 1028.2
20260502062028 50 269 0.0 0.0 0.00 0.00 0.00 71 1028.3
20260502061527 49 269 0.0 0.0 0.00 0.00 0.00 74 1028.2
20260502061027 48 270 0.0 0.0 0.00 0.00 0.00 75 1028.2
20260502060529 47 271 0.0 2.0 0.00 0.00 0.00 77 1028.3
20260502060027 46 271 0.0 3.0 0.00 0.00 0.00 78 1028.3
20260502055526 45 268 0.0 3.0 0.00 0.00 0.00 78 1028.4
20260502055026 44 267 0.0 2.0 0.00 0.00 0.00 80 1028.4
20260502054024 43 266 0.0 2.0 0.00 0.00 0.00 79 1028.4
20260502053521 42 262 0.0 2.0 0.00 0.00 0.00 80 1028.4
20260502052518 42 266 0.0 3.0 0.00 0.00 0.00 81 1028.3
20260502052015 41 271 0.0 4.0 0.00 0.00 0.00 82 1028.4
20260502051529 40 271 0.0 4.0 0.00 0.00 0.00 82 1028.3
20260502050509 39 280 0.0 4.0 0.00 0.00 0.00 82 1028.3
20260502050010 39 282 0.0 4.0 0.00 0.00 0.00 83 1028.4
20260502045007 38 277 0.0 3.0 0.00 0.00 0.00 82 1028.3
20260502044506 38 279 0.0 2.0 0.00 0.00 0.00 82 1028.4
20260502042959 38 276 0.0 1.0 0.00 0.00 0.00 81 1028.3
20260502042459 38 278 0.0 1.0 0.00 0.00 0.00 81 1028.3
20260502041457 38 273 0.0 3.0 0.00 0.00 0.00 80 1028.2
20260502040500 38 271 0.0 3.0 0.00 0.00 0.00 81 1028.3
20260502035955 38 274 0.0 3.0 0.00 0.00 0.00 81 1028.2
20260502035453 38 274 0.0 3.0 0.00 0.00 0.00 80 1028.3
20260502034953 38 277 0.0 3.0 0.00 0.00 0.00 81 1028.1
20260502034452 38 266 0.0 2.0 0.00 0.00 0.00 80 1028.2
20260502033951 38 267 0.0 3.0 0.00 0.00 0.00 80 1028.0
20260502033454 38 275 1.0 6.0 0.00 0.00 0.00 79 1028.1